Location: Charbonni�res
(45.9952°N, 2.9982°E)
Time: 14:16:41
(UTC+00:00)

FENGYUN 3A - Pass Details

Date: 29 November 2020
Orbit: 823 x 837 km, 98.4° (Epoch: 26 January)

Event Time Altitude Azimuth Distance (km) Brightness Sun altitude
Rises 04:51:48 0° 10° (N) 3,392 6.9 -22.9°
Reaches altitude 10° 04:54:12 10° 6° (N) 2,452 6.1 -22.5°
Maximum altitude 04:59:31 58° 290° (WNW) 969 3.6 -21.6°
Drops below altitude 10° 05:04:46 10° 212° (SSW) 2,426 5.9 -20.7°
Sets 05:07:08 0° 208° (SSW) 3,353 6.6 -20.3°
